STARLINK-3940 (52540 NORAD) Tracking and Keplerian Element Data

This shows tracking and keplerian element data for the satellite.

Feedback or suggestion? Click here.




ElementValue
Catalog52540
NameSTARLINK-3940
Epoch Orbit970
Epoch Day192.91667824
Epoch Year2022
RAAN10.1547
Inclination53.2174
Eccentricity0.0001672
Argument of Perigee48.5316
Mean Anonmoly61.0601
Mean Motion15.12612478
Decay Rate-0.00718292
L11 52540U 22051H 22192.91667824 -.00718292 00000+0 -43656-1 0 9990
L22 52540 53.2174 10.1547 0001672 48.5316 61.0601 15.12612478 9708

Live tracking and technical data element details for STARLINK-3940 (NORAD 52540). STARLINK-3940 can be tracked NOW for your location showing map with azimuth and elevation plus other details from your city location.

Track the satellite on the map from your city or location and see movement details for azimuth, elevation, latitude, longitude, range, height, and movement on the map or in text.







IsCatalogInMostPopularTable: catalog: 52540, numindb: 6
Update: records affected: 1



GetName: 52540 STARLINK-3940

Hit Count: updated at: Sun, 14 Aug 2022 01:39:59 GMT